Location: Newark
(34.7667°N, 118.4167°W)
Time: 17:22:55
(UTC+00:00)

Hubble Space Telescope - Visible Passes

Search period start: 20 March 2019 00:00
Search period end: 30 March 2019 00:00
Orbit: 537 x 540 km, 28.5° (Epoch: 19 March)

Date Brightness Start Highest point End Pass type
(mag) Time Alt. Az. Time Alt. Az. Time Alt. Az.
24 Mar 3.0 02:45:21 10° S 02:46:22 11° SSE 02:47:23 10° SE visible
24 Mar 3.5 04:23:31 10° SW 04:23:46 11° SW 04:23:46 11° SW visible
25 Mar 2.9 02:33:44 10° S 02:35:46 13° SSE 02:37:48 10° SE visible
25 Mar 3.0 04:12:50 10° SW 04:14:11 18° SW 04:14:11 18° SW visible
26 Mar 2.4 04:02:13 10° SW 04:04:32 25° SSW 04:04:32 25° SSW visible
27 Mar 1.9 03:51:37 10° WSW 03:54:48 31° SSW 03:54:48 31° SSW visible
28 Mar 1.6 03:41:03 10° WSW 03:44:48 34° S 03:45:02 33° S visible
29 Mar 1.7 03:30:30 10° WSW 03:34:16 34° S 03:35:13 30° SSE visible
